Clinton-Sherman, OK

4:23 AM CDT on August 21, 2017 (GMT -0500)
Clinton-Sherman

Weather History for KCSM - October, 2013

Change the Weather History Date:

Saturday, October 26, 2013

  Actual Average Record
Temperature  
Mean Temperature 60 °F -  
Max Temperature 71 °F 65 °F 91 °F (2014)
Min Temperature 48 °F 46 °F 30 °F (1997)
Degree Days  
Heating Degree Days 6    
Growing Degree Days 10 (Base 50)    
Moisture  
Dew Point 49 °F    
Average Humidity 74    
Maximum Humidity 97    
Minimum Humidity 58    
Precipitation  
Precipitation 0.02 in - - ()
Sea Level Pressure  
Sea Level Pressure 30.14 in    
Wind  
Wind Speed 14 mph (North)    
Max Wind Speed 24 mph    
Max Gust Speed 32 mph    
Visibility 9 miles    
Events      
Averages and records for this station are not official NWS values.
T = Trace of Precipitation, MM = Missing Value Source: NWS Daily Summary

Daily Weather History Graph

Daily Weather History Graph

Search for Another Location

Airport or City:

Trip Planner

Search our weather history database for the weather conditions in past years. The results will help you decide how hot, cold, wet, or windy it might be!

Date:

Astronomy

Oct. 26, 2013 Rise Set
Actual Time 7:52 AM CDT 6:47 PM CDT
Civil Twilight 7:26 AM CDT 7:13 PM CDT
Nautical Twilight 6:57 AM CDT 7:43 PM CDT
Astronomical Twilight 6:27 AM CDT 8:13 PM CDT
Moon 12:13 AM CDT (10/26) 2:08 PM CDT (10/26)
Length of Visible Light 11h 47m
Length of Day
10h 55m
Waning Gibbous, 53% of the Moon is Illuminated
Oct 26
Waning Gibbous
Oct 26
Last Quarter
Nov 3
New
Nov 9
First Quarter
Nov 17
Full

Hourly Weather History & Observations

Time (CDT) Temp. Dew Point Humidity Pressure Visibility Wind Dir Wind Speed Gust Speed Precip Events Conditions
12:53 AM 55.0 °F 46.0 °F 72% 30.17 in 10.0 mi South 17.3 mph - N/A   Partly Cloudy
1:53 AM 55.0 °F 46.0 °F 72% 30.15 in 10.0 mi South 16.1 mph - N/A   Overcast
2:53 AM 54.0 °F 48.0 °F 80% 30.15 in 10.0 mi South 13.8 mph - N/A   Overcast
3:53 AM 53.1 °F 48.0 °F 83% 30.13 in 10.0 mi South 12.7 mph - N/A   Scattered Clouds
4:53 AM 53.1 °F 48.0 °F 83% 30.12 in 10.0 mi South 15.0 mph - N/A   Mostly Cloudy
5:53 AM 53.1 °F 48.0 °F 83% 30.12 in 10.0 mi South 11.5 mph - N/A   Scattered Clouds
6:53 AM 53.1 °F 50.0 °F 89% 30.12 in 10.0 mi South 12.7 mph - 0.00 in   Mostly Cloudy
7:53 AM 53.1 °F 50.0 °F 89% 30.11 in 9.0 mi South 12.7 mph - 0.00 in   Overcast
8:53 AM 53.1 °F 51.1 °F 93% 30.12 in 7.0 mi South 13.8 mph - N/A   Overcast
9:53 AM 54.0 °F 53.1 °F 97% 30.14 in 6.0 mi South 13.8 mph - 0.02 in   Mostly Cloudy
10:53 AM 55.9 °F 55.0 °F 97% 30.14 in 5.0 mi SSW 12.7 mph - N/A   Partly Cloudy
11:22 AM 57.2 °F 55.4 °F 94% 30.15 in 5.0 mi South 13.8 mph - N/A   Scattered Clouds
11:53 AM 60.1 °F 57.0 °F 90% 30.12 in 6.0 mi South 12.7 mph - N/A   Scattered Clouds
12:53 PM 68.0 °F 55.9 °F 65% 30.09 in 10.0 mi South 13.8 mph - N/A   Clear
1:53 PM 69.1 °F 55.0 °F 61% 30.09 in 10.0 mi SW 9.2 mph - N/A   Partly Cloudy
2:53 PM 69.1 °F 55.0 °F 61% 30.07 in 10.0 mi North 12.7 mph - N/A   Mostly Cloudy
3:03 PM 69.8 °F 55.4 °F 60% 30.10 in 10.0 mi North 15.0 mph - N/A   Mostly Cloudy
3:53 PM 66.9 °F 54.0 °F 63% 30.08 in 10.0 mi North 13.8 mph - N/A   Mostly Cloudy
4:53 PM 68.0 °F 53.1 °F 59% 30.07 in 10.0 mi North 16.1 mph - N/A   Mostly Cloudy
5:53 PM 64.9 °F 53.1 °F 65% 30.09 in 10.0 mi NNE 11.5 mph - N/A   Mostly Cloudy
6:35 PM 62.6 °F 53.6 °F 72% 30.14 in 10.0 mi North 24.2 mph 28.8 mph N/A   Overcast
6:53 PM 59.0 °F 50.0 °F 72% 30.14 in 10.0 mi North 21.9 mph 32.2 mph N/A   Overcast
7:11 PM 57.2 °F 48.2 °F 72% 30.17 in 10.0 mi North 21.9 mph - N/A   Mostly Cloudy
7:53 PM 55.9 °F 46.0 °F 69% 30.17 in 10.0 mi North 15.0 mph - N/A   Overcast
8:13 PM 55.4 °F 46.4 °F 72% 30.19 in 10.0 mi North 13.8 mph - N/A   Overcast
8:38 PM 55.4 °F 44.6 °F 67% 30.20 in 10.0 mi North 13.8 mph - N/A   Mostly Cloudy
8:53 PM 55.0 °F 44.1 °F 67% 30.18 in 10.0 mi North 10.4 mph - N/A   Mostly Cloudy
9:53 PM 54.0 °F 39.9 °F 59% 30.19 in 10.0 mi North 13.8 mph - N/A   Mostly Cloudy
10:01 PM 53.6 °F 39.2 °F 58% 30.21 in 10.0 mi North 11.5 mph - N/A   Mostly Cloudy
10:23 PM 51.8 °F 39.2 °F 62% 30.21 in 10.0 mi North 10.4 mph - N/A   Scattered Clouds
10:53 PM 50.0 °F 39.0 °F 66% 30.20 in 10.0 mi North 8.1 mph - N/A   Clear
11:53 PM 48.0 °F 39.0 °F 71% 30.19 in 10.0 mi North 9.2 mph - N/A   Clear